This demonstration page uses our WeatherBlox Daily Observations layout. Learn more.

Left ArrowRight Arrow

Hourly Observations for December 3, 2020

Temp ( °F °C ) Dew Point ( °F °C ) Humidity (%) Winds ( mph kmh ) Pressure ( in mb ) Visibility ( mi km ) Precip ( " mm )
12:56 am 00:56 Cloudy 32 0 27 -2.8 82 82 N 8 13 30.42 1030 10 16 0.00 0.00
1:56 am 01:56 Cloudy 32 0 26 -3.3 79 79 N 8 13 30.40 1030 10 16 0.00 0.00
2:56 am 02:56 Partly Cloudy 30 -1.1 26 -3.3 85 85 NNW 8 13 30.38 1029 10 16 0.00 0.00
3:56 am 03:56 Clear 27 -2.8 23 -5 85 85 NNW 9 15 30.37 1029 10 16 0.00 0.00
4:56 am 04:56 Clear 22 -5.6 20 -6.7 92 92 WNW 7 11 30.37 1029 10 16 0.00 0.00
5:56 am 05:56 Clear 20 -6.7 17 -8.3 89 89 WNW 8 13 30.39 1029 10 16 0.00 0.00
6:56 am 06:56 Clear 20 -6.7 18 -7.8 92 92 NW 9 15 30.39 1029 10 16 0.00 0.00
7:56 am 07:56 Sunny 19 -7.2 17 -8.3 92 92 WNW 8 13 30.39 1029 10 16 0.00 0.00
8:56 am 08:56 Sunny 25 -3.9 20 -6.7 81 81 W 9 15 30.37 1028 10 16 0.00 0.00
9:56 am 09:56 Sunny 32 0 24 -4.4 73 73 WNW 12 19 30.35 1028 10 16 0.00 0.00
10:56 am 10:56 Sunny 35 1.7 20 -6.7 54 54 WNW 10 17 30.33 1027 10 16 0.00 0.00
11:56 am 11:56 Sunny 39 3.9 18 -7.8 43 43 NW 10 17 30.29 1026 10 16 0.00 0.00
12:56 pm 12:56 Sunny 42 5.6 16 -8.9 35 35 NW 9 15 30.25 1025 10 16 0.00 0.00
1:56 pm 13:56 Sunny 45 7.2 15 -9.4 30 30 NNW 14 22 30.21 1023 10 16 0.00 0.00
2:56 pm 14:56 Sunny 47 8.3 16 -8.9 29 29 NW 12 19 30.17 1022 10 16 0.00 0.00
3:56 pm 15:56 Sunny 47 8.3 15 -9.4 28 28 WNW 12 19 30.17 1022 10 16 0.00 0.00
4:56 pm 16:56 Sunny 41 5 15 -9.4 35 35 WNW 6 9 30.19 1022 9 14 0.00 0.00
5:56 pm 17:56 Clear 40 4.4 15 -9.4 36 36 W 8 13 30.18 1022 10 16 0.00 0.00
6:56 pm 18:56 Clear 39 3.9 15 -9.4 38 38 W 7 11 30.18 1022 10 16 0.00 0.00
7:56 pm 19:56 Clear 36 2.2 17 -8.3 46 46 WSW 6 9 30.18 1022 10 16 0.00 0.00
8:56 pm 20:56 Clear 33 0.6 17 -8.3 52 52 WSW 6 9 30.17 1022 10 16 0.00 0.00
9:56 pm 21:56 Clear 31 -0.6 18 -7.8 59 59 W 6 9 30.16 1021 10 16 0.00 0.00
10:56 pm 22:56 Clear 30 -1.1 18 -7.8 61 61 W 7 11 30.15 1021 10 16 0.00 0.00
11:56 pm 23:56 Clear 29 -1.7 17 -8.3 61 61 W 6 9 30.15 1021 10 16 0.00 0.00

Powered by AerisWeather